Powrót do katalogu

COSMOS 2251 DEB

AktywnyLEO
NORAD 35764·DEBRIS·🇷🇺 Russia

Wystrzelony Jun 16, 1993 z Plesetsk Cosmodrome

Loading…

Następne Przeloty (najbliższe 24 godziny)

TLE

Starzejące sięSource: Space-Track

Epoka: Sep 12, 2026, 10:23 UTC

1 35764U 93036ARJ 26255.43274879  .00004613  00000-0  60062-3 0  9991
2 35764  74.0229 164.6290 0025896 216.3614 143.5804 14.80690695700945

Śledź COSMOS 2251 DEB w czasie rzeczywistym z AllMySat

Download on the App Store